Location: Unspecified
(0.0000°N, 0.0000°E)
Time: 03:08:52
(UTC+01:00)

Atlas Centaur 2 - Visible Passes

Search period start: 22 December 2014 00:00
Search period end: 01 January 2015 00:00
Orbit: 460 x 1326 km, 30.4° (Epoch: 20 December)

Date Brightness Start Highest point End Pass type
(mag) Time Alt. Az. Time Alt. Az. Time Alt. Az.
23 Dec 5.3 22:29:47 10° S 22:31:14 11° S 22:31:14 11° S visible
24 Dec 5.1 22:27:05 10° SSW 22:29:43 14° S 22:29:43 14° S visible
25 Dec 5.0 22:24:51 10° SSW 22:28:13 18° S 22:28:13 18° S visible
26 Dec 4.8 22:22:49 10° SSW 22:26:43 21° S 22:26:43 21° S visible
27 Dec 5.1 20:34:33 10° S 20:37:13 12° SSE 20:39:53 10° SE visible
27 Dec 4.6 22:20:56 10° SSW 22:25:15 26° S 22:25:15 26° S visible
28 Dec 5.0 20:31:53 10° S 20:36:15 15° SSE 20:40:37 10° SE visible
28 Dec 4.4 22:19:10 10° SW 22:23:49 30° SSW 22:23:49 30° SSW visible
29 Dec 4.8 20:29:41 10° SSW 20:35:11 19° SSE 20:39:39 13° ESE visible
29 Dec 4.3 22:17:30 10° SW 22:22:24 35° SSW 22:22:24 35° SSW visible
30 Dec 4.5 20:27:41 10° SSW 20:34:02 23° SSE 20:38:16 16° ESE visible
30 Dec 4.1 22:15:56 10° SW 22:21:02 39° SW 22:21:02 39° SW visible
31 Dec 4.2 20:25:49 10° SSW 20:32:48 29° SSE 20:36:57 20° ESE visible
31 Dec 4.0 22:14:28 10° SW 22:19:43 42° SW 22:19:43 42° SW visible
